全球星 M078星 (GLOBALSTAR M078)

导读 | 星芒AI

GLOBALSTAR M078 是 Globalstar 卫星通信公司部署的一颗低轨移动通信卫星,属于其第二代卫星星座(Globalstar 2)的一部分。该卫星运行在约1414公里高度的近极地轨道,主要用于提供全球范围的语音和数据通信服务,特别是在偏远地区。M078 于2023年发射,采用先进通信技术,支持更高效的数据传输和更稳定的连接,增强了 Globalstar 在应急通信和移动宽带市场的竞争力。

基本信息
目录编号:
39076
目录名称:
GLOBALSTAR M078
国际标识:
2013-005E
轨道中心:
EARTH
卫星名称:
全球星 M078星
卫星全名:
全球星 M078星 (GLOBALSTAR M078)
卫星状态:
在轨 (已飞行4696 天)
发射日期:
2013-02-06 UTC
国别 :
(GLOB)
星等 :
--
轨道信息
数据来源 国际轨道数据 AOE轨道数据
星历时间 2025-12-15T16:05:13+0800
17小时前
查看轨道信息
2025-12-15T04:00:00+0800
1天前
查看轨道信息
半长轴 7791.716km 7791.717km
偏心率 0.0000923 0.000088
轨道倾角 51.986° 51.985°
近地点辐角 167.546° 167.897°
升交点赤经 123.489° 125.022°
平近点角 192.543° 62.539°
近地点 1412.861km 1412.896km
远地点 1414.301km 1414.268km
周期 114.080分钟 114.080分钟
每日圈数 12.622725 12.622724
详细信息
固有亮度:
5
最大亮度:
7.2
平衡模式:
三轴稳定
覆盖范围:
全球
运营商:
全球星公司
运营商所在国:
美国
使用方式:
暂无
卫星简介
全球星星座由48颗卫星加8颗备份星组成。这些卫星分布在8个倾角为52度的圆形轨道平面上,每个轨道平面6颗卫星,另有1 颗备用星。轨道高度约为1414km,传输时延和处理时延小于300ms,整个系统的覆盖区为南北纬70度以内的地区。该卫星仍在工作。
2D轨道图
3D轨道图
轨道高度分析图
轨道倾角分析图
轨道综合分析图
查看轨道综合分析图